Szeged, Hungary

1:29 PM CEST on April 25, 2017 (GMT +0200)
Szeged

Weather History for LHUD - October, 2011

Change the Weather History Date:

Monday, October 31, 2011

  Actual Average (LRAR) Record (LRAR)
Temperature  
Mean Temperature 48 °F -  
Max Temperature 60 °F 48 °F 96 °F (2016)
Min Temperature 33 °F 35 °F 21 °F (2006)
Degree Days  
Heating Degree Days 18    
Moisture  
Dew Point 35 °F    
Average Humidity 66    
Maximum Humidity 93    
Minimum Humidity 27    
Precipitation  
Precipitation 0.00 in 0.05 in - ()
Sea Level Pressure  
Sea Level Pressure 30.24 in    
Wind  
Wind Speed 2 mph ()    
Max Wind Speed 5 mph    
Max Gust Speed -    
Visibility 4.3 miles    
Events      
Averages and records for this station are not official NWS values.
T = Trace of Precipitation, MM = Missing Value Source: Averaged Metar Reports

Daily Weather History Graph

Daily Weather History Graph

Search for Another Location

Airport or City:

Trip Planner

Search our weather history database for the weather conditions in past years. The results will help you decide how hot, cold, wet, or windy it might be!

Date:

Astronomy

Oct. 31, 2011 Rise Set
Actual Time 6:18 AM CET 4:27 PM CET
Civil Twilight 5:47 AM CET 4:58 PM CET
Nautical Twilight 5:11 AM CET 5:33 PM CET
Astronomical Twilight 4:36 AM CET 6:08 PM CET
Moon 11:20 AM CET (10/31) 8:35 PM CET (10/31)
Length of Visible Light 11h 11m
Length of Day
10h 08m
Waxing Crescent, 27% of the Moon is Illuminated
Oct 31
Waxing Crescent
Nov 2
First Quarter
Nov 10
Full
Nov 18
Last Quarter
Nov 25
New

Hourly Weather History & Observations

Time (CET) Temp. Windchill Dew Point Humidity Pressure Visibility Wind Dir Wind Speed Gust Speed Precip Events Conditions
12:45 AM 44.6 °F - 39.2 °F 81% 30.27 in 3.7 mi Calm Calm - N/A   Overcast
1:00 AM 44 °F - 38 °F 73% 30.28 in 4 mi Calm Calm - -   Partly Cloudy
1:45 AM 42.8 °F - 39.2 °F 87% 30.27 in 3.7 mi Calm Calm - N/A   Overcast
2:45 AM 44.6 °F 43.1 °F 37.4 °F 76% 30.24 in 3.7 mi SSE 3.5 mph - N/A   Overcast
3:45 AM 42.8 °F 41.1 °F 37.4 °F 81% 30.24 in 3.7 mi SE 3.5 mph - N/A   Overcast
4:45 AM 42.8 °F 41.1 °F 35.6 °F 76% 30.24 in 3.7 mi SE 3.5 mph - N/A   Mostly Cloudy
5:15 AM 41.0 °F - 35.6 °F 81% 30.24 in 3.7 mi ESE 2.3 mph - N/A   Mostly Cloudy
5:45 AM 39.2 °F - 33.8 °F 81% 30.24 in 3.7 mi ESE 1.2 mph - N/A   Mostly Cloudy
6:15 AM 39.2 °F 37.0 °F 33.8 °F 81% 30.24 in 3.7 mi SE 3.5 mph - N/A   Scattered Clouds
6:45 AM 37.4 °F - 32.0 °F 81% 30.27 in 3.1 mi SE 2.3 mph - N/A   Scattered Clouds
7:00 AM 38 °F - 32 °F 73% 30.27 in 4 mi SE 2.2 mph - -   Partly Cloudy
7:15 AM 39.2 °F - 35.6 °F 87% 30.27 in 3.1 mi ESE 2.3 mph - N/A   Scattered Clouds
7:45 AM 42.8 °F 41.1 °F 35.6 °F 76% 30.27 in 3.7 mi SSE 3.5 mph - N/A   Scattered Clouds
8:15 AM 44.6 °F 42.2 °F 35.6 °F 71% 30.27 in 3.7 mi SSE 4.6 mph - N/A   Mostly Cloudy
8:45 AM 46.4 °F 45.2 °F 35.6 °F 66% 30.27 in 4.3 mi SSE 3.5 mph - N/A   Mostly Cloudy
9:15 AM 48.2 °F - 37.4 °F 66% 30.27 in 4.3 mi ESE 2.3 mph - N/A   Mostly Cloudy
9:45 AM 50.0 °F - 37.4 °F 62% 30.27 in 5.0 mi ESE 3.5 mph - N/A   Mostly Cloudy
10:15 AM 53.6 °F - 37.4 °F 54% 30.27 in 3.7 mi ESE 2.3 mph - N/A   Mostly Cloudy
10:45 AM 53.6 °F - 37.4 °F 54% 30.27 in 4.3 mi East 2.3 mph - N/A   Mostly Cloudy
11:15 AM 53.6 °F - 35.6 °F 51% 30.24 in 5.6 mi SE 2.3 mph - N/A   Mostly Cloudy
11:45 AM 55.4 °F - 37.4 °F 51% 30.24 in - East 1.2 mph - N/A   Clear
12:15 PM 59.0 °F - 35.6 °F 42% 30.24 in - North 2.3 mph - N/A   Clear
12:45 PM 59.0 °F - 33.8 °F 39% 30.24 in - East 2.3 mph - N/A   Clear
1:00 PM 59 °F - 34 °F 27% 30.23 in 9 mi East 2.2 mph - -   Mostly Cloudy
1:15 PM 59.0 °F - 35.6 °F 42% 30.21 in - NNE 3.5 mph - N/A   Clear
1:45 PM 59.0 °F - 33.8 °F 39% 30.21 in - ESE 2.3 mph - N/A   Clear
2:15 PM 59.0 °F - 35.6 °F 42% 30.21 in - East 2.3 mph - N/A   Clear
2:45 PM 59.0 °F - 33.8 °F 39% 30.21 in - NE 3.5 mph - N/A   Clear
3:15 PM 59.0 °F - 35.6 °F 42% 30.21 in - ENE 4.6 mph - N/A   Clear
3:45 PM 57.2 °F - 35.6 °F 44% 30.21 in - ENE 4.6 mph - N/A   Clear
4:15 PM 55.4 °F - 35.6 °F 47% 30.21 in - ENE 4.6 mph - N/A   Clear
4:45 PM 53.6 °F - 35.6 °F 51% 30.21 in 5.0 mi NE 4.6 mph - N/A   Partly Cloudy
5:15 PM 48.2 °F - 35.6 °F 62% 30.21 in 5.0 mi NE 3.5 mph - N/A   Partly Cloudy
5:45 PM 46.4 °F - 35.6 °F 66% 30.21 in - NE 1.2 mph - N/A   Clear
6:15 PM 46.4 °F - 35.6 °F 66% 30.21 in - NE 2.3 mph - N/A   Clear
6:45 PM 44.6 °F - 35.6 °F 71% 30.21 in - ENE 2.3 mph - N/A   Clear
7:00 PM 44 °F - 36 °F 66% 30.22 in 7 mi ENE 2.2 mph - -   Partly Cloudy
7:15 PM 41.0 °F - 35.6 °F 81% 30.21 in - ENE 2.3 mph - N/A   Clear
7:45 PM 41.0 °F - 35.6 °F 81% 30.21 in - Calm Calm - N/A   Clear
8:15 PM 39.2 °F - 33.8 °F 81% 30.21 in 5.0 mi Calm Calm - N/A   Unknown
8:45 PM 39.2 °F - 33.8 °F 81% 30.21 in 5.0 mi Calm Calm - N/A   Unknown
9:45 PM 37.4 °F - 33.8 °F 87% 30.21 in 4.3 mi Calm Calm - N/A   Unknown
10:45 PM 35.6 °F - 33.8 °F 93% 30.21 in 3.7 mi North 2.3 mph - N/A   Unknown
11:45 PM 33.8 °F - 32.0 °F 93% 30.21 in 3.7 mi North 1.2 mph - N/A   Unknown